Regional Weather Roundup
Issued by NWS Portland, ME

Home | Current Version | Previous Version | Text Only | Print | Product List | Glossary On
Versions: 1 2 3 4 5 6 7 8 9 10 11 12 13 14 15 16 17 18 19 20 21 22 23 24 25 26 27 28 29 30 31 32 33 34 35 36 37 38 39 40 41 42 43 44 45 46 47 48 49 50
000
ASUS41 KGYX 241210
RWRGYX
WEATHER ROUNDUP FOR MAINE AND NEW HAMPSHIRE
NATIONAL WEATHER SERVICE GRAY ME
800 AM EDT FRI OCT 24 2014

MEZ002-005-006-010-012-015-018-020-021-024-026-027-029-241300-
MAINE

CITY           SKY/WX    TMP DP  RH WIND       PRES   REMARKS
PORTLAND       CLOUDY    49  45  86 N13       29.68S FOG
6HR MIN TEMP:  48; 6HR MAX TEMP:  50; 6HR PCP:  0.31;

SANFORD        CLOUDY    46  41  81 N13       29.69S
BAR HARBOR     CLOUDY    48  48 100 N10       29.63R
WISCASSET      CLOUDY    47  45  93 VRB3      29.69R
6HR MIN TEMP:  47; 6HR MAX TEMP:  48; 6HR PCP:  0.07;

ROCKLAND       CLOUDY    48  45  87 N9        29.62F
FRYEBURG       CLOUDY    47  46  97 CALM      29.72S
6HR MIN TEMP:  47; 6HR MAX TEMP:  49; 6HR PCP:  0.04;

LEWISTONAUBURN CLOUDY    46  43  87 N12       29.69S
AUGUSTA        CLOUDY    45  43  93 N13       29.70R
6HR MIN TEMP:  45; 6HR MAX TEMP:  46; 6HR PCP:  0.01;

WATERVILLE     CLOUDY    46  41  81 N10       29.68R
BANGOR         LGT RAIN  45  43  93 N13       29.68S
6HR MIN TEMP:  45; 6HR MAX TEMP:  47; 6HR PCP:  0.12;

GREENVILLE       N/A     40  39  97 N14       29.70S
6HR MIN TEMP:  40; 6HR MAX TEMP:  40; 6HR PCP:  0.22;

MILLINOCKET    LGT RAIN  43  41  93 N9G20     29.73F
6HR MIN TEMP:  43; 6HR MAX TEMP:  44; 6HR PCP:  0.30;

HOULTON        LGT RAIN  42  40  92 N10       29.73F FOG
6HR MIN TEMP:  42; 6HR MAX TEMP:  44; 6HR PCP:  0.75;

PRESQUE ISLE   CLOUDY    41  36  81 N10       29.80S
6HR MIN TEMP:  41; 6HR MAX TEMP:  43; 6HR PCP:  0.22;

FRENCHVILLE    LGT RAIN  42  31  64 N6        29.84R
6HR MIN TEMP:  42; 6HR MAX TEMP:  46; 6HR PCP: TRACE;

CARIBOU        LGT RAIN  40  36  86 N13       29.80R
6HR MIN TEMP:  40; 6HR MAX TEMP:  41; 6HR PCP:  0.18;

$$

NHZ002-005-008-009-011-012-014-241300-
NEW HAMPSHIRE

CITY           SKY/WX    TMP DP  RH WIND       PRES   REMARKS
PORTSMOUTH     DRIZZLE   49  47  92 NW12      29.68R FOG
ROCHESTER      LGT RAIN  48  46  93 NW10      29.69R FOG
6HR MIN TEMP:  48; 6HR MAX TEMP:  48; 6HR PCP:  0.11;

NASHUA         CLOUDY    48  46  93 NW9       29.72R
MANCHESTER     CLOUDY    49  44  83 N7        29.70R
6HR MIN TEMP:  48; 6HR MAX TEMP:  50; 6HR PCP:  0.11;

CONCORD        CLOUDY    47  45  93 NW7       29.72R
6HR MIN TEMP:  47; 6HR MAX TEMP:  49; 6HR PCP:  0.17;

LACONIA        CLOUDY    46  43  87 W3        29.71R
PLYMOUTH       CLOUDY    46  46  99 W6        29.73R
BERLIN         CLOUDY    44  43  96 CALM      29.76R
6HR MIN TEMP:  44; 6HR MAX TEMP:  45; 6HR PCP:  0.08;

WHITEFIELD     LGT RAIN  44  41  89 N5        29.76R
6HR MIN TEMP:  44; 6HR MAX TEMP:  46; 6HR PCP:  0.05;

JAFFREY        CLOUDY    45  42  89 VRB5      29.73S
6HR MIN TEMP:  45; 6HR MAX TEMP:  48; 6HR PCP:  0.09;

LEBANON        CLOUDY    46  41  82 N7        29.77R
6HR MIN TEMP:  46; 6HR MAX TEMP:  47; 6HR PCP:  0.06;

MT WASHINGTON  NOT AVBL
$$

VTZ005-007-008-241300-
VERMONT

CITY           SKY/WX    TMP DP  RH WIND       PRES   REMARKS
ST JOHNSBURY     N/A     43  42  97 MISG      29.77R
MONTPELIER     CLOUDY    40  38  93 NW8       29.83R
BURLINGTON     CLOUDY    42  40  92 N8        29.87R FOG
$$

MAZ007-012-024-CTZ003-RIZ002-NYZ038-NYZ072-241300-
SOUTHERN NEW ENGLAND AND NY

CITY           SKY/WX    TMP DP  RH WIND       PRES   REMARKS
BOSTON         CLOUDY    48  48 100 NW10      29.70R FOG
WORCESTER      LGT RAIN  45  43  93 NW14      29.71R
NANTUCKET      CLOUDY    52  49  89 NW24G33   29.61R
PROVIDENCE     CLOUDY    51  47  86 NW12      29.70S
HARTFORD       LGT RAIN  48  44  86 N8        29.75R
ALBANY         LGT RAIN  46  43  89 N6        29.85R FOG
NEW YORK CITY  MOCLDY    52  44  74 NW10      29.81R
$$

ANZ081-ANZ082-ANZ150-NHZ014-MEZ023>029-241300-
COASTAL MARINE OBSERVATIONS

STATION/POSITION TIME  TEMP    WIND        PRES    WAVE
                       AIR SEA DIR/SP/G            HT/PER
                 (UTC) (F)     (DEG/KT/KT) (MB)    (FT/S)
MOUNT DESERT ROC 1200   52                 1001.5R
MATINICUS ROCK   1200           10/ 23/ 26 1001.9R
PORTLAND WX BUOY 1150   49 54  360/ 19/ 25 1003.9R   6/10
WELLS            1100   48 49  350/ 12/ 17 1003.8R
ISLE OF SHOALS   1200   48     340/ 15/ 18 1004.5R
JEFFREYS LEDGE   1121      55                N/A    10/10
CASHES LEDGE BUO 1150   53 55   20/ 21/ 25 1000.9R  11/ 9
$$

.............KEY..............
   WCI - WIND CHILL
   TC  - TEMPERATURE IN CELSIUS
   VSB - VISIBILITY IN MILES
   HX  - HEAT INDEX
   FAIR- INDICATES FEW OR NO CLOUDS BELOW 12,000 FT, WITH NO
         SIGNIFICANT WEATHER AND/OR OBSTRUCTIONS TO VISIBILITY.





USA.gov is the U.S. government's official web portal to all federal, state and local government web resources and services.